Location: Sydney
(46.1500°N, 60.1670°W)
Time: 09:55:28
(UTC-03:00)

Iridium 90 - Visible Passes

Search period start: 30 March 2015 00:00
Search period end: 09 April 2015 00:00
Orbit: 747 x 750 km, 86.4° (Epoch: 29 March)

Date Brightness Start Highest point End Pass type
(mag) Time Alt. Az. Time Alt. Az. Time Alt. Az.
30 Mar 6.2 21:11:45 10° NNE 21:16:16 32° ENE 21:16:37 32° E visible
30 Mar 6.9 22:51:54 10° NNW 22:56:23 32° W 22:56:31 32° W visible
31 Mar 7.0 20:30:45 10° NNE 20:33:44 16° ENE 20:35:04 15° E visible
31 Mar 5.6 22:09:27 10° N 22:14:30 69° W 22:14:57 65° SW visible
01 Apr 5.5 21:27:25 10° N 21:32:25 56° E 21:33:26 47° SE visible
01 Apr 7.6 23:08:35 10° NW 23:12:09 19° W 23:13:19 17° W visible
02 Apr 6.5 20:45:51 10° NNE 20:50:06 27° ENE 20:51:56 22° ESE visible
02 Apr 6.6 22:25:40 10° NNW 22:30:22 39° W 22:31:49 32° WSW visible
03 Apr 7.3 20:05:13 10° NE 20:07:30 13° ENE 20:10:00 10° E visible
03 Apr 5.4 21:43:20 10° N 21:48:26 83° W 21:50:21 39° S visible
03 Apr 8.3 23:26:34 10° WNW 23:27:48 11° WNW 23:28:44 10° W visible
04 Apr 5.7 21:01:25 10° N 21:06:18 46° E 21:08:54 25° SE visible
04 Apr 7.5 22:42:11 10° NNW 22:46:09 23° W 22:48:48 15° WSW visible
05 Apr 6.7 20:19:58 10° NNE 20:23:54 23° ENE 20:27:30 12° ESE visible
05 Apr 6.3 21:59:28 10° NNW 22:04:20 47° W 22:07:23 21° SSW visible
06 Apr 5.3 21:17:14 10° N 21:22:21 82° E 21:26:01 19° S visible
06 Apr 8.2 22:59:24 10° NW 23:01:50 13° WNW 23:04:00 10° WSW visible
07 Apr 6.0 20:35:25 10° NNE 20:40:08 38° E 20:44:40 11° SSE visible
07 Apr 7.3 22:15:51 10° NNW 22:20:08 27° W 22:24:18 10° SW visible
08 Apr 6.0 21:33:17 10° N 21:38:16 57° W 21:43:13 10° SSW visible
